Change the Weather History Date:

Sunday, November 3, 2013

  Actual Average Record
Temperature  
Mean Temperature 36 °F -  
Max Temperature 48 °F 46 °F 75 °F (1964)
Min Temperature 24 °F 28 °F 0 °F (1951)
Degree Days  
Heating Degree Days 29    
Moisture  
Dew Point 28 °F    
Average Humidity 87    
Maximum Humidity 100    
Minimum Humidity 52    
Precipitation  
Precipitation 0.00 in - - ()
Sea Level Pressure  
Sea Level Pressure 30.22 in    
Wind  
Wind Speed 1 mph (SE)    
Max Wind Speed 13 mph    
Max Gust Speed 20 mph    
Visibility 4 miles    
Events Fog    
Averages and records for this station are not official NWS values.
T = Trace of Precipitation, MM = Missing Value Source: NWS Daily Summary

Daily Weather History Graph

Daily Weather History Graph

Search for Another Location

Airport or City:

Trip Planner

Search our weather history database for the weather conditions in past years. The results will help you decide how hot, cold, wet, or windy it might be!

Date:

Astronomy

Nov. 03, 2013 Rise Set
Actual Time 6:39 AM CST 4:45 PM CST
Civil Twilight 6:09 AM CST 5:16 PM CST
Nautical Twilight 5:34 AM CST 5:50 PM CST
Astronomical Twilight 5:00 AM CST 6:24 PM CST
Moon 6:44 AM CST (11/3) 4:59 PM CST (11/3)
Length of Visible Light 11h 06m
Length of Day
10h 06m
New Moon, 0% of the Moon is Illuminated
Nov 3
New Moon
Nov 9
First Quarter
Nov 17
Full
Nov 25
Last Quarter
Dec 2
New

Hourly Weather History & Observations

Time (CST) Temp. Windchill Dew Point Humidity Pressure Visibility Wind Dir Wind Speed Gust Speed Precip Events Conditions
12:02 AM 28.4 °F - 26.6 °F 93% 30.15 in 1.2 mi Calm Calm - N/A   Partly Cloudy
12:04 AM 28.4 °F - 26.6 °F 93% 30.15 in 0.8 mi Calm Calm - N/A   Mist
12:27 AM 26.6 °F - 26.6 °F 100% 30.15 in 1.0 mi Calm Calm - N/A   Mostly Cloudy
12:37 AM 28.4 °F - 26.6 °F 93% 30.16 in 2.0 mi Calm Calm - N/A   Mostly Cloudy
12:54 AM 27.0 °F - 25.0 °F 92% 30.20 in 1.5 mi Calm Calm - N/A   Mostly Cloudy
1:05 AM 26.6 °F - 24.8 °F 93% 30.16 in 0.8 mi Calm Calm - N/A   Mostly Cloudy
1:15 AM 24.8 °F - 24.8 °F 100% 30.17 in 0.2 mi Calm Calm - N/A Fog Light Freezing Fog
1:54 AM 27.0 °F - 25.0 °F 92% 30.22 in 0.5 mi Calm Calm - N/A Fog Light Freezing Fog
1:07 AM 26.6 °F - 24.8 °F 93% 30.18 in 1.5 mi Calm Calm - N/A   Mostly Cloudy
1:10 AM 26.6 °F - 24.8 °F 93% 30.18 in 3.0 mi Calm Calm - N/A   Mostly Cloudy
1:25 AM 26.6 °F - 24.8 °F 93% 30.18 in 1.8 mi Calm Calm - N/A   Mostly Cloudy
1:29 AM 26.6 °F - 24.8 °F 93% 30.18 in 0.8 mi Calm Calm - N/A   Mist
1:54 AM 27.0 °F - 25.0 °F 92% 30.23 in 0.5 mi Calm Calm - N/A Fog Light Freezing Fog
2:44 AM 26.6 °F - 24.8 °F 93% 30.20 in 2.5 mi Calm Calm - N/A   Overcast
2:51 AM 26.6 °F - 24.8 °F 93% 30.20 in 5.0 mi Calm Calm - N/A   Overcast
2:54 AM 27.0 °F - 25.0 °F 92% 30.24 in 5.0 mi Calm Calm - N/A   Overcast
3:14 AM 26.6 °F - 24.8 °F 93% 30.21 in 1.8 mi Calm Calm - N/A   Overcast
3:38 AM 26.6 °F - 24.8 °F 93% 30.21 in 0.8 mi Calm Calm - N/A   Overcast
3:54 AM 27.0 °F - 25.0 °F 92% 30.25 in 0.2 mi Calm Calm - N/A Fog Light Freezing Fog
4:27 AM 26.6 °F - 24.8 °F 93% 30.21 in 1.2 mi Calm Calm - N/A   Overcast
4:31 AM 26.6 °F - 24.8 °F 93% 30.21 in 3.0 mi Calm Calm - N/A   Overcast
4:49 AM 26.6 °F - 24.8 °F 93% 30.21 in 1.5 mi Calm Calm - N/A   Overcast
4:54 AM 26.1 °F - 24.1 °F 92% 30.26 in 0.8 mi Calm Calm - N/A   Overcast
5:28 AM 24.8 °F - 23.0 °F 93% 30.22 in 1.2 mi Calm Calm - N/A   Overcast
5:31 AM 24.8 °F - 23.0 °F 93% 30.22 in 3.0 mi Calm Calm - N/A   Overcast
5:41 AM 24.8 °F - 23.0 °F 93% 30.23 in 1.8 mi Calm Calm - N/A   Overcast
5:46 AM 26.6 °F - 24.8 °F 93% 30.23 in 0.8 mi Calm Calm - N/A   Overcast
5:54 AM 26.1 °F - 25.0 °F 96% 30.27 in 0.5 mi Calm Calm - N/A Fog Light Freezing Fog
6:45 AM 26.6 °F 22.6 °F 24.8 °F 93% 30.23 in 1.2 mi East 3.5 mph - N/A   Overcast
6:51 AM 26.6 °F - 24.8 °F 93% 30.24 in 0.8 mi Calm Calm - N/A   Overcast
6:54 AM 27.0 °F - 26.1 °F 96% 30.28 in 0.5 mi Calm Calm - N/A Fog Light Freezing Fog
7:40 AM 28.4 °F - 28.4 °F 100% 30.25 in 1.2 mi Calm Calm - N/A   Overcast
7:43 AM 28.4 °F - 28.4 °F 100% 30.25 in 3.0 mi Calm Calm - N/A   Overcast
7:54 AM 30.0 °F - 28.9 °F 96% 30.30 in 8.0 mi Calm Calm - N/A   Overcast
8:13 AM 32.0 °F - 30.2 °F 93% 30.26 in 9.0 mi Calm Calm - N/A   Scattered Clouds
8:54 AM 35.1 °F 32.2 °F 34.0 °F 96% 30.30 in 10.0 mi SSE 3.5 mph - N/A   Clear
9:54 AM 39.9 °F 35.8 °F 37.0 °F 89% 30.30 in 10.0 mi SE 5.8 mph - N/A   Clear
10:54 AM 45.0 °F 40.1 °F 37.0 °F 74% 30.29 in 10.0 mi SE 9.2 mph - N/A   Partly Cloudy
11:54 AM 46.0 °F 41.4 °F 35.1 °F 66% 30.27 in 10.0 mi South 9.2 mph - N/A   Clear
12:54 PM 46.9 °F - 33.1 °F 59% 30.24 in 10.0 mi SSE 9.2 mph - N/A   Clear
1:54 PM 46.9 °F - 34.0 °F 61% 30.22 in 10.0 mi SSE 8.1 mph - N/A   Partly Cloudy
2:54 PM 48.0 °F - 30.9 °F 52% 30.21 in 10.0 mi SSE 11.5 mph - N/A   Clear
3:54 PM 46.0 °F 41.0 °F 33.1 °F 61% 30.20 in 10.0 mi SE 10.4 mph - N/A   Clear
4:54 PM 44.1 °F 39.0 °F 33.1 °F 65% 30.19 in 10.0 mi SE 9.2 mph - N/A   Partly Cloudy
5:54 PM 43.0 °F 38.8 °F 32.0 °F 65% 30.20 in 10.0 mi ESE 6.9 mph - N/A   Clear
6:54 PM 42.1 °F 37.7 °F 32.0 °F 67% 30.21 in 10.0 mi SE 6.9 mph - N/A   Clear
7:54 PM 42.1 °F 36.6 °F 32.0 °F 67% 30.20 in 10.0 mi SE 9.2 mph - N/A   Clear
8:54 PM 42.1 °F 35.7 °F 34.0 °F 73% 30.19 in 10.0 mi SE 11.5 mph 19.6 mph N/A   Clear
9:54 PM 42.1 °F 35.2 °F 34.0 °F 73% 30.18 in 10.0 mi SE 12.7 mph 17.3 mph N/A   Clear
10:54 PM 41.0 °F 34.7 °F 35.1 °F 79% 30.18 in 10.0 mi SE 10.4 mph 18.4 mph N/A   Clear